Alexandria, LA

5:46 PM CST on December 04, 2016 (GMT -0600)
Alexandria International

Weather History for KAEX - January, 2013

Change the Weather History Date:

Tuesday, January 8, 2013

  Actual Average Record
Temperature  
Mean Temperature 54 °F 49 °F  
Max Temperature 62 °F 59 °F 79 °F (1907)
Min Temperature 45 °F 39 °F 17 °F (1942)
Degree Days  
Heating Degree Days 11 16  
Month to date heating degree days 148 128  
Since 1 July heating degree days 857 917  
Growing Degree Days 3 (Base 50)    
Moisture  
Dew Point 50 °F    
Average Humidity 86    
Maximum Humidity 100    
Minimum Humidity 71    
Precipitation  
Precipitation 0.40 in 0.15 in 2.90 in (1961)
Month to date precipitation 3.66 1.19  
Year to date precipitation 3.66 1.19  
Snow  
Snow 0.00 in - T in (1971)
Month to date snowfall 0.0  
Since 1 July snowfall 0.0  
Snow Depth 0.00 in    
Sea Level Pressure  
Sea Level Pressure 30.10 in    
Wind  
Wind Speed 5 mph (East)    
Max Wind Speed 22 mph    
Max Gust Speed 30 mph    
Visibility 9 miles    
Events Rain    
T = Trace of Precipitation, MM = Missing Value Source: NWS Daily Summary

Daily Weather History Graph

Daily Weather History Graph

Search for Another Location

Airport or City:

Trip Planner

Search our weather history database for the weather conditions in past years. The results will help you decide how hot, cold, wet, or windy it might be!

Date:

Astronomy

Jan. 08, 2013 Rise Set
Actual Time 7:10 AM CST 5:24 PM CST
Civil Twilight 6:43 AM CST 5:50 PM CST
Nautical Twilight 6:13 AM CST 6:20 PM CST
Astronomical Twilight 5:44 AM CST 6:50 PM CST
Moon 3:44 AM CST (1/8) 2:26 PM CST (1/8)
Length of Visible Light 11h 07m
Length of Day
10h 14m
Waning Crescent, 13% of the Moon is Illuminated
Jan 8
Waning Crescent
Jan 11
New
Jan 18
First Quarter
Jan 26
Full
Feb 3
Last Quarter

Hourly Weather History & Observations

Time (CST) Temp. Windchill Dew Point Humidity Pressure Visibility Wind Dir Wind Speed Gust Speed Precip Events Conditions
12:53 AM 46.9 °F - 39.9 °F 77% 30.16 in 10.0 mi East 3.5 mph - N/A   Overcast
1:53 AM 46.0 °F - 39.0 °F 76% 30.15 in 10.0 mi Calm Calm - N/A   Partly Cloudy
2:53 AM 45.0 °F - 39.9 °F 82% 30.15 in 10.0 mi Calm Calm - N/A   Overcast
3:53 AM 46.0 °F 44.8 °F 39.0 °F 76% 30.13 in 10.0 mi ENE 3.5 mph - N/A   Scattered Clouds
4:53 AM 45.0 °F - 39.9 °F 82% 30.12 in 10.0 mi Calm Calm - N/A   Clear
5:53 AM 46.9 °F - 39.9 °F 77% 30.12 in 10.0 mi Calm Calm - N/A   Mostly Cloudy
6:53 AM 46.0 °F - 41.0 °F 83% 30.14 in 10.0 mi Calm Calm - N/A   Scattered Clouds
7:53 AM 48.9 °F - 39.9 °F 71% 30.15 in 10.0 mi East 4.6 mph - N/A   Scattered Clouds
8:32 AM 50.0 °F - 42.8 °F 76% 30.14 in 10.0 mi ESE 4.6 mph - N/A   Overcast
9:53 AM 51.1 °F - 45.0 °F 80% 30.19 in 10.0 mi ESE 5.8 mph - 0.00 in   Overcast
10:53 AM 52.0 °F - 46.9 °F 83% 30.18 in 8.0 mi ENE 4.6 mph - 0.01 in Rain Light Rain
11:53 AM 51.1 °F - 48.9 °F 92% 30.16 in 6.0 mi Calm Calm - 0.02 in Rain Light Rain
12:18 PM 51.8 °F - 50.0 °F 94% 30.14 in 2.0 mi Calm Calm - 0.05 in Rain Heavy Rain
12:28 PM 51.8 °F - 50.0 °F 94% 30.13 in 1.5 mi Calm Calm - 0.12 in Rain Heavy Rain
1:08 PM 53.6 °F - 51.8 °F 94% 30.08 in 3.0 mi ENE 4.6 mph - 0.03 in Rain Rain
1:53 PM 54.0 °F - 53.1 °F 97% 30.07 in 8.0 mi East 6.9 mph - 0.05 in Rain Light Rain
2:53 PM 57.0 °F - 55.0 °F 93% 30.04 in 10.0 mi East 11.5 mph - 0.00 in   Partly Cloudy
3:48 PM 57.2 °F - 55.4 °F 94% 30.03 in 10.0 mi East 8.1 mph - N/A   Mostly Cloudy
3:53 PM 57.9 °F - 55.0 °F 90% 30.04 in 10.0 mi East 8.1 mph - N/A   Mostly Cloudy
4:53 PM 57.0 °F - 55.9 °F 96% 30.05 in 10.0 mi ESE 8.1 mph - 0.01 in   Overcast
5:43 PM 57.2 °F - 55.4 °F 94% 30.04 in 10.0 mi East 5.8 mph - 0.00 in   Overcast
5:53 PM 57.0 °F - 55.9 °F 96% 30.05 in 10.0 mi East 4.6 mph - 0.00 in   Overcast
6:53 PM 57.0 °F - 57.0 °F 100% 30.07 in 9.0 mi East 3.5 mph - 0.00 in Rain Light Rain
7:53 PM 57.9 °F - 57.0 °F 97% 30.07 in 9.0 mi East 8.1 mph - 0.00 in Rain Light Rain
8:53 PM 60.1 °F - 59.0 °F 96% 30.08 in 10.0 mi SE 10.4 mph - 0.01 in Rain Light Rain
9:53 PM 60.1 °F - 60.1 °F 100% 30.09 in 10.0 mi ESE 9.2 mph - 0.00 in Rain Light Rain
10:53 PM 61.0 °F - 60.1 °F 97% 30.07 in 10.0 mi ESE 6.9 mph - 0.03 in Rain Light Rain
11:53 PM 61.0 °F - 60.1 °F 97% 30.06 in 10.0 mi East 6.9 mph - 0.00 in Rain Light Rain